Location: Unspecified
(0.0000°N, 0.0000°E)
Time: 08:23:33
(UTC+00:00)

BEESAT 2 - Pass Details

Date: 19 May 2021
Orbit: 493 x 525 km, 64.9° (Epoch: 16 June)

Event Time Altitude Azimuth Distance (km) Brightness Sun altitude
Exits shadow 04:54:28 24° 269° (W) 1,083 ? -14.6°
Maximum altitude 04:55:19 26° 292° (WNW) 1,021 ? -14.4°
Drops below altitude 10° 04:58:37 10° 350° (N) 1,735 ? -13.6°
Sets 05:01:02 0° 3° (N) 2,624 ? -13.0°
